Temp
89 90 92 92 92 92 91 92 91 92 91 92 92 92 93 93 92 91 90 88 87 86 86 86 86 87 86 87 88 88 89 89 89 89 89 89 90 90 90 91 91 90 92 92 91 92 91 92 91 91 91 90 90 90 89 89 89 90 89 88 88 89 88
85 86 88 92 94 93 91 92 92 92 92 92 92 91 93 93 92 92 90 88 87 87 87 87 86 87 87 87 88 88 87 88 89 88 90 89 89 90 91 90 90 90 90 92 93 92 92 92 92 91 91 91 91 90 91 90 89 89 90 89 89 88 88
83 84 86 87 88 92 92 93 93 93 92 93 94 93 93 91 92 90 90 89 88 87 88 87 86 87 87 87 87 87 88 89 89 89 89 91 90 93 92 91 91 92 93 92 92 93 93 92 91 91 92 92 93 91 90 90 90 90 90 89 89 89 88
79 81 84 85 87 88 90 93 94 94 95 95 94 95 93 91 93 92 91 91 89 88 87 88 88 89 88 87 87 87 87 88 89 91 92 92 92 92 91 91 90 92 92 93 94 94 97 93 92 91 90 91 91 92 91 91 92 91 90 89 89 90 89
77 80 82 84 86 87 89 92 94 93 94 96 96 94 95 94 94 94 93 93 94 91 91 91 93 91 89 89 90 90 89 89 89 91 92 92 92 91 91 92 93 92 92 94 93 92 91 91 93 91 90 90 92 91 91 91 92 91 90 89 89 90 91
74 75 78 83 85 87 89 91 95 96 95 96 97 96 97 97 96 96 95 93 94 94 93 92 92 90 89 91 91 91 90 89 89 89 90 91 91 92 92 92 93 93 94 93 95 93 92 92 93 93 92 93 93 94 93 92 92 93 91 90 89 91 92
73 73 76 79 84 87 88 91 93 96 97 98 99 98 98 98 97 96 96 96 95 93 94 93 94 93 90 91 90 90 89 90 90 90 91 92 92 91 91 92 92 94 95 94 93 94 93 92 92 92 92 94 93 94 92 91 92 92 91 90 89 89 90
74 73 74 77 82 85 86 85 90 95 97 98 97 99 98 98 98 97 96 97 96 97 96 96 94 92 90 91 91 91 91 91 92 91 91 92 92 91 92 92 92 92 93 94 93 93 94 93 94 93 93 93 93 92 93 91 90 94 92 90 89 90 93
76 75 74 74 77 82 84 84 84 84 84 86 93 97 97 97 98 98 97 97 97 96 96 98 97 95 92 91 90 90 92 92 92 91 91 92 93 94 94 94 93 93 92 94 95 94 93 94 95 92 92 92 92 91 91 90 91 92 92 91 90 90 92
75 74 74 74 75 77 79 81 82 83 81 82 83 88 95 96 96 97 98 98 98 96 97 97 97 97 93 92 92 92 92 91 92 94 93 94 94 94 95 96 95 94 93 94 96 96 93 94 94 93 90 91 90 90 90 90 91 92 93 91 91 90 90
75 74 74 73 72 73 74 76 78 80 83 82 81 83 84 89 95 97 97 98 98 97 97 96 96 96 95 94 93 93 91 92 93 93 93 94 96 96 97 97 97 96 94 95 95 96 95 93 93 92 91 92 91 90 90 91 91 91 93 93 93 92 92
75 75 73 72 71 71 70 71 74 77 80 83 86 82 79 80 86 94 97 97 99 99 96 96 96 95 95 95 94 92 91 91 93 94 94 94 96 97 97 98 97 97 96 96 95 95 97 95 94 93 91 91 92 92 91 90 91 90 91 94 95 93 93
77 75 74 72 70 70 70 69 70 73 77 83 85 86 84 82 82 86 90 94 97 98 98 95 95 93 94 94 94 92 90 92 93 93 95 94 95 97 97 98 99 98 97 96 96 96 97 97 94 93 93 92 92 93 91 91 92 90 90 91 93 93 92
75 78 76 74 72 69 68 68 69 70 73 78 82 84 85 84 82 84 88 90 95 98 98 98 94 93 92 91 91 90 90 91 93 94 93 94 92 94 96 97 97 96 96 96 95 96 97 98 97 95 95 93 93 93 93 91 91 90 90 91 92 93 93
76 76 76 76 73 72 70 69 68 69 71 73 77 79 82 81 80 82 84 86 87 94 97 95 94 92 92 90 89 89 90 90 92 93 93 92 92 92 93 95 95 95 95 94 95 98 98 98 98 96 94 94 93 93 94 94 92 93 92 91 91 92 93
75 75 75 75 74 74 73 71 69 68 69 70 73 75 79 79 79 79 80 80 86 87 90 93 93 92 91 90 88 89 90 89 90 90 91 90 90 89 91 93 93 95 94 94 94 94 93 94 95 97 96 94 93 93 94 94 95 88 79 82 91 92 94
73 73 74 75 74 74 74 74 71 69 68 69 71 74 75 76 78 80 79 77 81 84 89 93 92 92 90 90 89 89 89 88 88 88 88 89 89 89 89 89 91 90 91 91 92 91 91 92 93 95 96 96 95 94 94 95 95 80 71 72 75 89 92
71 71 73 74 74 74 73 74 74 71 68 68 71 73 74 73 75 78 78 79 79 82 85 87 88 89 90 90 89 89 88 88 87 87 87 88 87 88 88 88 89 88 89 90 91 89 92 92 91 91 94 96 96 96 95 95 84 72 69 70 70 76 90
70 72 72 72 73 73 74 73 74 73 72 70 69 71 72 73 73 73 74 75 77 80 82 83 86 87 87 90 90 89 88 88 87 87 87 87 87 87 87 87 87 88 88 90 90 91 88 88 91 90 91 93 92 94 96 96 80 69 68 68 68 68 79
70 71 72 73 74 74 73 73 73 75 74 72 72 74 74 73 73 74 74 75 76 77 79 81 82 83 85 86 89 89 88 87 87 87 87 87 87 87 86 86 86 88 90 90 89 88 89 90 89 90 89 90 90 90 94 95 82 68 67 66 66 67 72
71 71 71 71 71 73 72 73 73 73 73 73 74 75 75 75 74 74 75 76 75 75 76 79 79 80 81 82 85 89 89 88 87 87 87 87 86 86 86 86 86 87 89 91 91 89 87 89 89 89 90 91 92 92 94 97 76 67 65 64 64 65 70
73 73 72 72 72 71 72 72 72 73 73 75 77 77 76 75 76 75 74 77 76 74 74 74 75 77 77 78 81 83 88 88 87 87 87 87 87 86 85 85 85 86 88 89 93 92 92 91 91 91 91 91 92 93 92 96 73 66 64 62 63 64 79
74 74 74 74 75 74 74 75 74 74 74 75 76 76 75 75 75 75 75 77 77 75 74 73 72 72 74 76 78 79 81 85 88 88 87 87 87 86 86 85 86 87 88 89 90 93 93 92 92 90 92 92 91 91 91 94 79 64 62 61 60 66 83
75 75 76 75 75 77 75 75 76 76 76 75 75 74 75 76 76 74 73 75 77 77 75 73 71 72 72 74 76 76 78 80 83 87 87 87 87 87 88 88 88 88 89 89 90 92 94 94 93 93 92 93 92 94 92 93 82 62 61 59 59 70 83
75 76 76 76 75 75 75 74 74 76 76 76 74 74 76 76 75 74 73 74 76 76 75 73 72 71 70 71 72 74 75 78 79 80 85 87 88 88 88 88 88 89 90 90 90 91 92 92 93 94 94 96 95 85 90 94 86 63 61 59 58 70 84
72 73 75 76 78 76 74 74 74 74 75 76 74 76 76 77 77 74 73 73 74 74 74 73 71 71 71 71 71 72 74 77 77 79 81 82 83 86 86 89 91 91 92 91 91 91 92 93 93 93 94 96 96 97 94 93 93 80 58 59 57 61 83
73 73 74 76 76 72 74 75 75 75 75 75 75 77 77 76 75 73 72 72 73 73 75 75 76 74 72 70 70 71 72 74 76 78 81 83 78 76 77 81 88 91 90 91 92 92 91 92 93 94 93 95 95 96 96 97 94 87 57 58 56 58 68
72 73 74 75 73 72 74 76 74 74 76 76 78 78 78 77 73 71 72 71 71 73 76 75 75 76 75 73 72 72 73 74 76 79 82 81 77 75 75 75 74 74 77 85 89 88 88 89 89 91 92 94 94 94 94 93 84 96 64 58 56 57 58
68 69 70 70 71 74 75 73 72 74 75 78 79 77 76 76 72 72 71 71 71 74 74 74 74 74 75 75 74 73 73 72 73 75 79 79 78 77 76 77 77 77 77 75 75 78 84 87 87 88 88 89 90 92 90 90 89 74 82 59 56 54 56
68 69 70 73 73 73 74 71 72 73 75 77 76 75 75 73 71 71 70 70 73 73 73 72 72 72 73 75 75 75 75 74 74 74 75 76 77 77 76 76 78 77 75 74 74 74 75 80 86 87 87 86 87 89 90 90 92 78 71 71 54 56 54
67 67 68 69 70 71 71 72 71 72 73 74 74 74 74 73 71 71 70 71 72 72 72 72 72 71 72 73 75 74 75 75 75 75 75 75 76 76 76 76 77 75 76 76 76 75 76 75 80 85 85 85 86 88 91 93 92 94 79 66 60 56 55
67 68 69 68 68 68 69 70 71 71 70 72 73 74 74 74 74 70 71 73 72 72 72 71 70 70 71 73 74 75 76 75 75 75 76 76 76 75 75 77 78 77 78 78 77 76 76 75 78 84 84 85 88 88 91 91 91 91 92 75 69 62 56
64 65 66 65 66 66 66 67 68 68 68 69 71 73 75 75 75 74 73 73 75 75 72 69 68 69 70 71 73 74 75 75 77 77 78 77 77 76 77 77 77 79 77 77 76 76 76 76 76 81 86 86 87 89 89 89 90 90 91 90 85 83 75
63 64 65 66 66 66 66 65 65 66 66 67 69 71 72 73 73 73 73 75 74 73 71 69 69 68 69 71 72 74 75 76 74 75 78 78 77 77 76 75 76 75 76 78 77 76 74 74 74 78 81 79 80 81 81 86 87 87 91 92 89 88 87
63 62 63 63 64 65 64 64 65 65 66 67 69 70 70 71 73 74 73 73 74 72 70 69 67 68 69 71 72 73 74 75 76 77 76 77 77 77 75 72 74 72 73 75 75 74 76 77 76 76 76 77 75 74 74 76 80 87 75 89 74 86 90
62 62 63 64 64 64 64 64 64 65 65 66 68 69 69 70 72 72 73 73 72 71 69 69 68 68 68 70 71 72 73 73 74 73 73 75 76 76 75 71 62 66 74 75 69 64 60 57 70 76 76 76 76 76 76 76 78 64 59 63 63 62 66
61 61 61 62 62 62 62 63 64 64 65 66 67 68 69 70 71 72 72 72 71 70 70 69 68 68 68 69 70 69 69 70 72 72 72 73 73 74 73 73 74 58 54 57 62 61 56 53 50 51 55 67 75 74 65 64 60 57 57 56 56 57 56
62 62 62 62 61 61 61 62 63 64 64 66 67 68 69 70 71 72 72 72 71 70 69 69 68 67 68 68 68 67 67 69 70 71 72 72 72 72 72 72 72 73 65 59 55 54 51 50 51 52 51 51 58 69 76 63 56 56 56 54 54 53 53
MSLP
1012.06 1011.46 1011.02 1011.18 1011.50 1011.58 1011.86 1011.74 1011.98 1012.34 1012.62 1012.86 1013.10 1013.30 1013.46 1013.66 1013.90 1014.22 1014.70 1015.14 1015.66 1016.10 1016.30 1016.54 1016.82 1017.02 1017.42 1017.58 1017.74 1017.86 1017.98 1018.22 1018.38 1018.74 1018.94 1019.10 1019.10 1019.30 1019.58 1019.58 1019.78 1019.90 1019.86 1020.14 1020.14 1020.18 1020.26 1020.14 1020.38 1020.54 1020.62 1020.82 1020.94 1021.02 1021.10 1021.10 1021.26 1021.30 1021.38 1021.50 1021.62 1021.66 1021.78
1013.26 1012.78 1012.22 1011.14 1010.90 1011.18 1011.54 1011.54 1011.62 1011.90 1012.22 1012.38 1012.62 1012.94 1013.06 1013.34 1013.66 1014.02 1014.42 1014.70 1015.10 1015.50 1015.86 1016.18 1016.54 1016.74 1016.98 1017.26 1017.34 1017.62 1017.90 1018.02 1018.14 1018.30 1018.50 1018.78 1018.86 1018.98 1019.02 1019.30 1019.46 1019.70 1019.74 1019.66 1019.66 1019.78 1019.94 1020.10 1020.18 1020.38 1020.58 1020.66 1020.78 1020.82 1020.90 1021.02 1021.10 1021.22 1021.22 1021.42 1021.62 1021.70 1021.74
1013.86 1013.38 1012.82 1012.42 1012.10 1011.34 1010.86 1010.98 1011.26 1011.42 1011.70 1011.94 1012.14 1012.50 1012.74 1013.02 1013.22 1013.66 1014.06 1014.46 1014.90 1015.14 1015.34 1015.74 1016.10 1016.34 1016.54 1016.82 1017.18 1017.42 1017.54 1017.74 1017.94 1018.18 1018.46 1018.50 1018.66 1018.70 1018.74 1018.94 1019.18 1019.30 1019.30 1019.38 1019.50 1019.62 1019.66 1019.90 1020.02 1020.14 1020.30 1020.46 1020.46 1020.70 1020.74 1020.86 1020.94 1021.06 1021.14 1021.26 1021.46 1021.58 1021.70
1014.66 1014.10 1013.34 1012.78 1012.14 1011.66 1011.26 1010.70 1010.90 1011.06 1011.18 1011.38 1011.62 1011.86 1012.22 1012.58 1012.66 1013.06 1013.46 1013.82 1014.46 1014.82 1015.26 1015.38 1015.66 1015.94 1016.18 1016.58 1016.90 1017.10 1017.34 1017.42 1017.54 1017.70 1017.86 1017.94 1018.22 1018.38 1018.58 1018.74 1018.94 1018.90 1019.18 1019.26 1019.14 1019.30 1019.18 1019.50 1019.90 1020.06 1020.22 1020.30 1020.38 1020.38 1020.54 1020.66 1020.66 1020.86 1020.98 1021.18 1021.34 1021.30 1021.46
1015.30 1014.54 1013.74 1013.22 1012.70 1012.18 1011.70 1011.06 1010.74 1010.86 1011.10 1010.94 1011.02 1011.30 1011.58 1011.90 1012.22 1012.62 1013.02 1013.26 1013.58 1014.22 1014.38 1014.66 1014.90 1015.26 1015.62 1015.94 1016.26 1016.50 1016.78 1017.02 1017.22 1017.30 1017.46 1017.54 1017.74 1018.02 1018.34 1018.50 1018.58 1018.78 1018.78 1018.82 1018.94 1019.18 1019.38 1019.58 1019.70 1019.90 1020.10 1020.22 1020.30 1020.30 1020.50 1020.54 1020.58 1020.70 1020.86 1021.02 1021.26 1021.14 1021.26
1015.86 1015.50 1014.74 1013.58 1013.02 1012.50 1011.74 1011.30 1010.62 1010.46 1010.82 1010.98 1010.94 1011.22 1011.34 1011.54 1011.86 1012.26 1012.54 1013.02 1013.30 1013.50 1013.90 1014.26 1014.54 1014.86 1015.34 1015.42 1015.70 1015.94 1016.22 1016.50 1016.70 1016.94 1017.22 1017.38 1017.62 1017.86 1018.06 1018.14 1018.18 1018.38 1018.54 1018.70 1018.58 1018.82 1019.14 1019.38 1019.46 1019.58 1019.82 1019.86 1019.98 1020.02 1020.10 1020.30 1020.34 1020.46 1020.66 1020.86 1021.02 1020.98 1020.98
1016.22 1015.90 1015.34 1014.34 1013.30 1012.66 1011.98 1011.06 1010.82 1010.34 1010.26 1010.42 1010.38 1010.58 1010.98 1011.26 1011.66 1011.90 1012.18 1012.58 1012.82 1013.38 1013.66 1014.02 1014.18 1014.50 1014.90 1015.02 1015.34 1015.62 1016.02 1016.22 1016.46 1016.70 1016.78 1017.10 1017.26 1017.58 1017.70 1017.78 1017.90 1017.94 1017.98 1018.14 1018.50 1018.46 1018.82 1019.10 1019.26 1019.34 1019.50 1019.54 1019.62 1019.74 1019.90 1020.14 1020.22 1020.18 1020.38 1020.74 1020.94 1020.94 1020.94
1016.26 1016.10 1015.54 1014.90 1013.94 1013.14 1012.66 1012.18 1011.06 1010.34 1010.10 1010.14 1010.46 1010.50 1010.90 1011.02 1011.18 1011.66 1011.98 1011.98 1012.38 1012.66 1013.02 1013.38 1013.78 1014.10 1014.50 1014.74 1014.94 1015.30 1015.58 1015.74 1015.90 1016.18 1016.38 1016.74 1016.94 1017.30 1017.38 1017.50 1017.62 1017.66 1017.82 1018.10 1018.14 1018.22 1018.46 1018.66 1018.78 1018.98 1019.18 1019.38 1019.50 1019.62 1019.66 1019.90 1020.14 1020.02 1020.14 1020.50 1020.78 1020.90 1020.62
1016.26 1015.98 1015.94 1015.50 1014.86 1013.90 1013.34 1012.82 1012.50 1012.30 1012.26 1011.86 1010.86 1010.54 1010.70 1010.94 1011.14 1011.30 1011.62 1011.82 1012.02 1012.50 1012.74 1012.74 1013.06 1013.38 1013.98 1014.46 1014.78 1015.06 1015.18 1015.34 1015.62 1015.86 1016.14 1016.42 1016.54 1016.78 1016.86 1016.98 1017.14 1017.26 1017.66 1017.78 1017.74 1017.86 1018.06 1018.26 1018.38 1018.62 1018.86 1019.10 1019.22 1019.46 1019.62 1019.74 1019.90 1019.86 1019.94 1020.18 1020.50 1020.70 1020.54
1016.70 1016.50 1016.10 1015.78 1015.30 1014.74 1014.34 1013.70 1013.18 1012.90 1013.06 1012.86 1012.46 1011.62 1010.94 1010.90 1011.14 1011.10 1011.18 1011.46 1011.78 1012.38 1012.42 1012.58 1012.70 1013.02 1013.62 1014.10 1014.38 1014.58 1014.90 1015.22 1015.22 1015.46 1015.74 1016.06 1016.06 1016.30 1016.34 1016.34 1016.58 1016.78 1017.18 1017.34 1017.30 1017.54 1017.70 1017.82 1017.98 1018.22 1018.66 1018.90 1019.06 1019.26 1019.42 1019.54 1019.58 1019.62 1019.66 1019.98 1020.10 1020.30 1020.46
1016.86 1016.74 1016.54 1016.30 1016.10 1015.74 1015.14 1014.62 1014.26 1013.86 1013.30 1013.22 1012.90 1012.62 1012.54 1012.02 1011.38 1011.18 1011.26 1011.30 1011.58 1011.86 1012.14 1012.38 1012.58 1012.86 1013.30 1013.70 1014.10 1014.30 1014.66 1014.90 1014.98 1015.22 1015.42 1015.54 1015.50 1015.70 1015.78 1015.90 1016.02 1016.26 1016.66 1016.82 1017.06 1017.06 1017.26 1017.58 1017.66 1017.98 1018.30 1018.58 1018.74 1018.94 1019.10 1019.14 1019.22 1019.42 1019.42 1019.46 1019.54 1019.78 1019.90
1017.10 1016.98 1017.02 1016.94 1016.70 1016.34 1016.26 1015.98 1015.42 1014.78 1014.06 1013.30 1012.98 1013.50 1013.50 1013.22 1012.50 1011.58 1011.18 1011.30 1011.18 1011.46 1011.82 1012.14 1012.26 1012.66 1012.94 1013.30 1013.78 1014.10 1014.38 1014.58 1014.74 1014.86 1015.02 1015.14 1015.14 1015.18 1015.30 1015.38 1015.58 1015.78 1016.06 1016.30 1016.66 1016.78 1016.82 1017.14 1017.34 1017.54 1017.90 1018.02 1018.14 1018.30 1018.50 1018.62 1018.78 1019.02 1019.14 1019.10 1019.14 1019.34 1019.46
1017.06 1017.10 1017.14 1017.30 1017.26 1017.06 1016.74 1016.58 1016.46 1015.90 1015.14 1014.26 1013.86 1013.62 1013.66 1013.66 1013.26 1012.62 1011.82 1011.46 1011.26 1011.18 1011.42 1011.82 1012.14 1012.42 1012.78 1012.98 1013.30 1013.70 1014.02 1014.18 1014.34 1014.42 1014.54 1014.78 1014.82 1014.70 1014.82 1015.02 1015.10 1015.30 1015.58 1015.74 1016.06 1016.34 1016.54 1016.58 1016.94 1017.06 1017.30 1017.54 1017.62 1017.78 1017.98 1018.18 1018.30 1018.54 1018.74 1018.82 1018.86 1019.02 1019.22
1017.14 1017.02 1016.98 1017.02 1017.26 1017.46 1017.50 1017.34 1016.98 1016.66 1016.14 1015.46 1014.82 1014.14 1013.78 1013.78 1013.74 1013.30 1012.58 1012.10 1011.26 1011.22 1011.34 1011.46 1012.02 1012.34 1012.70 1013.02 1013.34 1013.42 1013.62 1013.70 1013.70 1013.86 1014.10 1014.22 1014.50 1014.62 1014.58 1014.66 1014.82 1014.98 1015.10 1015.34 1015.78 1015.94 1016.02 1016.18 1016.42 1016.66 1016.82 1017.02 1017.18 1017.30 1017.42 1017.74 1017.98 1018.14 1018.30 1018.42 1018.54 1018.70 1018.86
1017.62 1017.46 1017.38 1017.30 1017.42 1017.38 1017.62 1017.66 1017.54 1017.22 1016.82 1016.30 1015.66 1015.14 1014.58 1014.38 1014.30 1013.90 1013.34 1012.90 1012.42 1011.62 1011.30 1011.30 1011.86 1012.46 1012.66 1012.98 1013.34 1013.30 1013.22 1013.30 1013.38 1013.46 1013.70 1014.02 1014.30 1014.54 1014.62 1014.58 1014.70 1014.78 1014.98 1015.18 1015.38 1015.38 1015.42 1015.58 1015.78 1016.14 1016.50 1016.58 1016.78 1016.94 1017.02 1017.26 1017.50 1017.58 1017.78 1018.10 1018.26 1018.26 1018.42
1018.10 1017.90 1017.82 1017.74 1017.70 1017.50 1017.38 1017.46 1017.58 1017.54 1017.26 1016.86 1016.46 1016.02 1015.50 1015.22 1014.94 1014.74 1014.42 1014.22 1013.38 1012.78 1012.02 1011.62 1011.82 1012.26 1012.70 1012.90 1013.02 1012.98 1012.98 1013.18 1013.34 1013.46 1013.58 1013.90 1014.18 1014.38 1014.46 1014.54 1014.58 1014.70 1014.94 1015.06 1015.18 1015.26 1015.34 1015.42 1015.54 1015.70 1016.02 1016.38 1016.54 1016.66 1016.78 1016.86 1016.82 1016.94 1017.26 1017.42 1017.58 1017.86 1017.90
1018.62 1018.46 1018.22 1018.06 1017.98 1017.78 1017.62 1017.38 1017.54 1017.62 1017.54 1017.30 1016.86 1016.46 1016.18 1015.94 1015.50 1015.06 1014.82 1014.66 1014.30 1013.66 1012.62 1011.90 1011.82 1012.06 1012.62 1012.86 1012.74 1012.78 1012.86 1013.18 1013.38 1013.46 1013.78 1013.78 1013.94 1014.10 1014.30 1014.46 1014.50 1014.70 1014.86 1014.98 1015.10 1015.22 1015.34 1015.46 1015.62 1015.62 1015.58 1015.82 1016.10 1016.38 1016.46 1016.38 1016.26 1016.54 1016.94 1017.22 1017.38 1017.46 1017.62
1018.98 1018.86 1018.62 1018.38 1018.22 1018.02 1017.98 1017.70 1017.54 1017.74 1017.86 1017.62 1017.18 1016.70 1016.42 1016.34 1015.94 1015.54 1015.26 1014.94 1014.70 1014.22 1013.46 1012.94 1012.62 1012.30 1012.22 1012.58 1012.70 1012.74 1012.86 1012.98 1013.18 1013.42 1013.58 1013.70 1013.94 1014.02 1014.10 1014.26 1014.50 1014.70 1014.82 1014.90 1015.02 1015.14 1015.06 1015.34 1015.46 1015.42 1015.38 1015.38 1015.50 1015.74 1015.78 1015.82 1015.78 1016.22 1016.62 1016.90 1017.14 1017.34 1017.38
1019.22 1019.02 1018.82 1018.66 1018.46 1018.26 1018.26 1018.18 1017.90 1017.78 1017.78 1017.62 1017.46 1017.10 1016.74 1016.50 1016.26 1016.02 1015.58 1015.26 1014.82 1014.22 1013.94 1013.66 1013.10 1012.74 1012.54 1012.14 1012.30 1012.58 1012.70 1012.74 1013.02 1013.18 1013.34 1013.50 1013.58 1013.78 1014.02 1014.26 1014.46 1014.58 1014.66 1014.74 1014.62 1014.74 1015.10 1015.10 1015.10 1015.18 1015.10 1015.14 1015.30 1015.30 1015.14 1015.18 1015.22 1015.78 1016.14 1016.46 1016.78 1017.10 1017.30
1019.02 1018.94 1018.86 1018.74 1018.54 1018.34 1018.38 1018.22 1018.06 1017.78 1017.66 1017.58 1017.42 1017.06 1016.82 1016.70 1016.58 1016.18 1015.70 1015.34 1014.90 1014.66 1014.38 1013.98 1013.66 1013.34 1012.98 1012.46 1012.14 1012.18 1012.46 1012.62 1012.70 1012.90 1012.98 1013.06 1013.26 1013.54 1013.86 1014.10 1014.26 1014.14 1014.06 1014.22 1014.38 1014.70 1014.74 1014.66 1014.74 1014.70 1014.78 1014.74 1014.82 1014.82 1014.66 1014.54 1014.58 1015.14 1015.54 1015.90 1016.30 1016.66 1017.06
1018.86 1018.78 1018.82 1018.82 1018.82 1018.54 1018.50 1018.26 1018.10 1017.86 1017.78 1017.54 1017.26 1016.94 1016.78 1016.62 1016.54 1016.38 1016.02 1015.54 1015.38 1015.02 1014.78 1014.46 1014.18 1013.86 1013.54 1013.18 1012.50 1012.02 1012.14 1012.42 1012.54 1012.58 1012.66 1012.74 1012.94 1013.22 1013.46 1013.66 1013.74 1013.82 1013.82 1013.82 1013.98 1014.18 1014.34 1014.30 1014.34 1014.30 1014.26 1014.26 1014.26 1014.34 1014.30 1013.98 1014.06 1014.58 1014.98 1015.38 1015.82 1016.22 1016.74
1018.78 1018.66 1018.70 1018.70 1018.62 1018.62 1018.46 1018.34 1018.18 1017.98 1017.90 1017.38 1017.06 1016.86 1016.90 1016.82 1016.54 1016.46 1016.26 1015.62 1015.50 1015.30 1015.02 1014.90 1014.66 1014.38 1014.06 1013.78 1013.30 1012.74 1012.10 1012.02 1012.22 1012.34 1012.30 1012.42 1012.58 1012.78 1013.02 1013.10 1013.22 1013.38 1013.34 1013.38 1013.22 1013.14 1013.26 1013.50 1013.54 1013.66 1013.74 1013.66 1013.74 1013.90 1014.02 1013.50 1013.66 1014.22 1014.70 1015.06 1015.54 1016.14 1016.54
1018.82 1018.66 1018.50 1018.38 1018.26 1018.26 1018.14 1018.02 1018.06 1017.86 1017.70 1017.46 1017.26 1017.10 1017.02 1016.86 1016.66 1016.58 1016.26 1015.70 1015.54 1015.38 1015.22 1015.02 1015.02 1014.90 1014.54 1014.26 1013.86 1013.42 1012.90 1012.18 1011.86 1011.86 1011.98 1012.02 1012.18 1012.30 1012.38 1012.50 1012.58 1012.62 1012.58 1012.98 1012.90 1012.86 1012.86 1012.90 1012.90 1012.94 1013.06 1013.18 1013.30 1013.54 1013.50 1013.26 1013.26 1013.78 1014.30 1014.82 1015.42 1016.18 1016.10
1018.58 1018.46 1018.42 1018.34 1018.18 1017.94 1017.94 1018.02 1017.94 1017.70 1017.58 1017.50 1017.38 1017.30 1017.02 1016.78 1016.70 1016.58 1016.46 1015.90 1015.50 1015.34 1015.26 1015.18 1015.14 1014.98 1014.86 1014.50 1014.22 1013.98 1013.42 1012.86 1012.22 1011.66 1011.54 1011.58 1011.74 1011.70 1011.62 1011.58 1011.66 1011.86 1011.86 1012.26 1012.42 1012.42 1012.18 1012.02 1012.18 1012.22 1012.26 1012.50 1012.66 1012.66 1013.06 1012.90 1012.78 1013.26 1013.74 1014.30 1015.02 1015.26 1015.46
1018.74 1018.58 1018.50 1018.34 1018.30 1018.14 1018.18 1018.14 1018.06 1017.78 1017.50 1017.34 1017.58 1017.30 1016.90 1016.70 1016.66 1016.66 1016.58 1016.22 1015.74 1015.42 1015.42 1015.46 1015.30 1015.10 1015.02 1014.74 1014.46 1014.10 1013.78 1013.22 1012.78 1012.30 1011.58 1011.18 1011.06 1011.02 1011.06 1011.06 1011.14 1011.10 1011.14 1011.38 1011.58 1011.66 1011.50 1011.46 1011.58 1011.58 1011.54 1011.54 1011.74 1011.94 1012.38 1012.30 1012.22 1012.66 1013.18 1013.78 1014.38 1014.74 1014.70
1019.14 1018.94 1018.62 1018.26 1017.94 1018.06 1018.18 1018.06 1017.86 1017.74 1017.62 1017.46 1017.54 1017.18 1016.86 1016.66 1016.58 1016.74 1016.74 1016.46 1016.02 1015.66 1015.50 1015.50 1015.38 1015.10 1014.82 1014.58 1014.38 1014.18 1013.86 1013.38 1013.06 1012.54 1012.02 1011.86 1011.58 1011.02 1010.86 1010.58 1010.66 1010.66 1010.78 1010.90 1010.94 1011.02 1011.02 1011.02 1011.02 1011.18 1011.06 1010.90 1011.10 1011.26 1011.50 1011.78 1011.70 1011.94 1012.58 1013.18 1013.78 1014.10 1014.06
1019.02 1018.90 1018.78 1018.42 1018.22 1018.30 1018.22 1017.90 1017.74 1017.78 1017.66 1017.38 1017.22 1016.86 1016.78 1016.78 1016.86 1016.94 1016.82 1016.62 1016.26 1015.94 1015.58 1015.14 1014.90 1014.74 1014.66 1014.58 1014.38 1014.10 1013.86 1013.54 1013.10 1012.62 1012.10 1011.66 1012.02 1012.38 1012.30 1011.82 1011.02 1010.62 1010.70 1010.86 1010.62 1010.58 1010.66 1010.66 1010.54 1010.58 1010.62 1010.50 1010.50 1010.62 1010.70 1010.74 1011.14 1011.30 1012.06 1012.62 1013.10 1013.58 1013.74
1018.90 1018.78 1018.70 1018.50 1018.46 1018.42 1018.10 1017.90 1017.78 1017.70 1017.38 1017.10 1016.74 1016.50 1016.46 1016.50 1016.98 1017.02 1016.74 1016.62 1016.46 1016.06 1015.58 1015.34 1014.86 1014.42 1014.30 1014.22 1014.06 1013.86 1013.70 1013.58 1013.22 1012.62 1012.10 1011.90 1012.14 1012.46 1012.34 1012.26 1012.54 1012.98 1012.54 1011.74 1010.90 1010.78 1010.70 1010.50 1010.38 1010.38 1010.26 1010.10 1010.06 1010.18 1010.22 1010.10 1010.42 1010.58 1011.34 1011.90 1012.46 1012.94 1013.22
1019.18 1019.06 1018.98 1018.94 1018.70 1018.22 1018.10 1017.98 1017.98 1017.78 1017.38 1016.86 1016.66 1016.70 1016.66 1016.66 1016.94 1016.94 1016.78 1016.62 1016.38 1015.98 1015.70 1015.46 1015.14 1014.78 1014.38 1014.06 1013.98 1013.74 1013.62 1013.34 1013.18 1012.90 1012.38 1012.26 1012.22 1012.26 1012.18 1011.98 1011.94 1011.86 1012.06 1012.86 1013.34 1012.62 1011.46 1010.54 1010.38 1010.34 1010.34 1010.22 1009.94 1009.78 1009.94 1009.94 1009.98 1010.18 1010.66 1011.30 1011.74 1012.22 1012.66
1019.10 1018.94 1018.70 1018.50 1018.46 1018.38 1018.22 1018.26 1017.94 1017.62 1017.26 1017.02 1016.90 1016.82 1016.78 1016.82 1016.98 1016.90 1016.94 1016.70 1016.14 1016.02 1015.78 1015.58 1015.34 1015.02 1014.58 1014.06 1013.82 1013.58 1013.30 1013.10 1012.90 1012.70 1012.58 1012.42 1012.18 1012.10 1012.18 1012.10 1011.82 1011.58 1011.58 1011.74 1012.38 1012.94 1013.06 1012.06 1010.46 1010.06 1010.06 1010.10 1009.98 1009.54 1009.42 1009.38 1009.46 1009.78 1010.06 1010.58 1011.10 1011.58 1011.94
1019.26 1019.18 1018.98 1018.78 1018.58 1018.46 1018.42 1018.22 1018.06 1017.74 1017.42 1017.14 1016.98 1016.82 1016.74 1016.70 1016.82 1016.78 1016.82 1016.42 1016.10 1016.02 1015.82 1015.58 1015.38 1015.26 1014.86 1014.34 1013.94 1013.62 1013.18 1012.74 1012.58 1012.58 1012.58 1012.46 1012.18 1012.10 1011.90 1011.74 1011.66 1011.82 1011.54 1011.58 1011.70 1011.86 1012.22 1012.42 1011.34 1010.06 1009.62 1009.66 1009.70 1009.42 1009.06 1008.82 1008.90 1008.98 1009.26 1009.82 1010.42 1010.82 1011.26
1019.18 1018.94 1018.74 1018.70 1018.62 1018.54 1018.46 1018.22 1018.02 1017.82 1017.58 1017.22 1017.02 1016.82 1016.50 1016.38 1016.38 1016.58 1016.34 1016.10 1016.06 1015.86 1015.70 1015.66 1015.58 1015.42 1015.10 1014.54 1014.06 1013.66 1013.22 1012.82 1012.54 1012.54 1012.58 1012.42 1012.30 1012.22 1011.90 1011.38 1011.10 1011.26 1011.18 1011.22 1011.38 1011.50 1011.78 1012.10 1011.34 1009.90 1009.38 1009.22 1008.98 1008.94 1008.74 1008.50 1008.54 1008.50 1008.38 1009.06 1009.62 1010.14 1010.66
1019.34 1019.10 1018.90 1018.86 1018.70 1018.70 1018.54 1018.34 1018.10 1017.98 1017.78 1017.46 1016.98 1016.78 1016.42 1016.18 1016.06 1016.06 1015.94 1015.90 1015.74 1015.54 1015.66 1015.82 1015.70 1015.46 1015.10 1014.78 1014.22 1013.74 1013.26 1012.94 1012.58 1012.58 1012.42 1012.26 1012.14 1012.06 1011.86 1011.46 1011.06 1010.74 1010.82 1011.06 1011.18 1011.22 1011.14 1011.46 1011.50 1010.14 1009.10 1008.94 1008.78 1008.62 1008.54 1008.46 1008.26 1008.22 1008.10 1008.14 1008.86 1009.34 1009.86
1019.30 1019.22 1019.02 1018.78 1018.62 1018.58 1018.50 1018.30 1018.10 1017.86 1017.70 1017.50 1017.06 1016.70 1016.46 1016.26 1016.06 1015.90 1015.78 1015.62 1015.62 1015.62 1015.66 1015.66 1015.58 1015.46 1015.14 1014.82 1014.42 1013.82 1013.26 1012.94 1012.62 1012.42 1012.06 1011.94 1011.98 1011.94 1011.90 1011.82 1011.38 1011.06 1010.86 1010.74 1010.78 1010.86 1011.22 1011.74 1011.46 1010.50 1009.62 1009.74 1009.94 1009.86 1009.58 1008.78 1008.42 1008.10 1007.78 1007.66 1007.86 1008.22 1008.50
1019.22 1019.22 1019.14 1018.90 1018.66 1018.54 1018.46 1018.26 1018.02 1017.74 1017.54 1017.30 1016.98 1016.70 1016.38 1016.14 1015.86 1015.66 1015.58 1015.54 1015.50 1015.62 1015.70 1015.58 1015.50 1015.38 1015.10 1014.74 1014.38 1013.94 1013.42 1013.10 1012.70 1012.10 1011.94 1011.82 1011.54 1011.46 1011.58 1011.82 1011.74 1011.50 1011.02 1010.70 1010.82 1010.86 1010.98 1010.86 1010.50 1009.90 1009.50 1009.34 1009.98 1010.94 1011.34 1010.82 1009.82 1008.46 1007.54 1007.02 1007.06 1007.18 1007.74
1018.94 1018.98 1018.90 1018.70 1018.54 1018.38 1018.18 1018.06 1017.90 1017.58 1017.26 1016.98 1016.74 1016.54 1016.34 1015.98 1015.62 1015.46 1015.30 1015.34 1015.42 1015.54 1015.62 1015.50 1015.38 1015.22 1014.94 1014.54 1014.26 1013.86 1013.58 1013.38 1012.94 1012.46 1012.14 1011.82 1011.54 1011.30 1011.10 1010.94 1011.06 1011.06 1011.10 1010.70 1010.30 1010.14 1010.10 1010.54 1010.46 1009.78 1009.54 1009.46 1009.06 1009.10 1009.94 1010.22 1009.94 1009.66 1009.54 1008.34 1007.02 1006.90 1007.10
1018.78 1018.70 1018.62 1018.50 1018.42 1018.22 1018.10 1017.82 1017.58 1017.34 1017.06 1016.74 1016.50 1016.30 1016.10 1015.78 1015.42 1015.18 1015.10 1015.18 1015.34 1015.46 1015.38 1015.30 1015.22 1015.02 1014.86 1014.54 1014.22 1014.06 1014.06 1013.74 1013.14 1012.54 1012.14 1011.82 1011.66 1011.38 1011.18 1010.66 1010.18 1010.34 1010.50 1010.46 1010.14 1009.70 1009.46 1009.50 1009.78 1010.02 1009.90 1009.34 1008.66 1008.38 1008.62 1008.86 1009.62 1010.06 1009.82 1009.42 1008.30 1007.10 1007.02
1018.54 1018.38 1018.18 1018.06 1017.98 1017.86 1017.70 1017.54 1017.30 1016.98 1016.66 1016.34 1016.14 1015.94 1015.66 1015.46 1015.14 1014.94 1014.82 1014.94 1015.10 1015.18 1015.26 1015.18 1015.06 1014.98 1014.82 1014.58 1014.34 1014.22 1014.06 1013.70 1013.30 1012.78 1012.34 1011.90 1011.54 1011.50 1011.42 1011.14 1010.54 1009.58 1009.50 1009.74 1009.66 1009.50 1009.26 1009.02 1008.66 1008.50 1008.66 1008.94 1008.90 1008.58 1008.54 1008.78 1009.34 1009.70 1009.74 1009.46 1008.62 1007.46 1006.98
Wind_Speed
8 4 9 11 11 13 14 14 16 15 16 16 16 17 17 16 15 14 14 15 16 15 15 15 14 13 14 13 13 12 11 11 10 10 10 9 8 8 8 8 8 7 7 7 7 6 6 6 6 7 6 6 6 6 5 5 5 5 5 4 4 3 4
9 8 9 5 11 13 13 15 15 15 15 16 16 17 16 17 15 15 14 15 17 16 16 15 15 14 14 13 12 13 13 13 12 10 10 9 8 8 8 8 7 7 7 7 6 6 6 7 7 6 7 7 7 6 7 6 6 6 5 6 5 5 5
11 11 9 8 8 5 11 15 15 15 16 16 16 16 17 16 16 16 15 15 17 16 16 16 16 15 14 14 13 14 13 13 13 13 13 11 12 12 10 8 8 8 8 8 7 7 7 7 6 6 7 7 7 7 6 6 7 7 6 6 6 5 5
12 12 11 10 10 8 8 9 15 15 15 16 17 18 18 18 18 16 16 17 17 17 17 16 16 15 14 14 14 13 14 14 14 13 14 13 11 11 10 10 8 8 8 9 9 8 7 7 8 7 7 7 6 6 7 6 7 7 7 6 6 6 6
14 12 10 10 9 8 7 7 10 14 15 16 17 17 17 18 18 16 17 16 17 18 18 18 15 15 13 14 12 12 14 15 14 13 13 12 11 10 11 12 10 10 9 9 9 7 7 7 7 7 7 7 7 7 7 7 7 7 7 7 6 6 6
13 13 12 10 8 8 7 10 10 12 14 15 16 16 16 17 17 19 18 17 16 16 16 16 17 16 15 16 14 13 13 14 13 13 12 12 12 12 12 12 12 11 11 10 9 9 9 8 8 8 8 8 8 8 8 8 8 8 7 7 7 7 7
12 13 12 11 10 8 8 5 11 8 11 13 13 13 14 14 16 17 15 16 17 17 17 17 16 15 14 13 14 14 15 15 14 15 13 14 13 13 12 11 11 11 10 9 10 9 9 9 9 9 9 9 8 9 8 8 8 7 7 7 7 7 7
13 13 13 13 11 11 10 15 10 2 6 9 11 12 15 14 15 16 17 15 16 16 16 17 16 15 14 13 13 15 15 15 14 14 13 15 14 14 13 12 12 11 10 11 10 10 10 10 10 10 10 10 9 8 8 8 8 8 8 8 8 8 7
14 15 15 14 14 13 13 13 13 13 15 14 6 12 11 13 13 13 15 15 14 15 16 16 16 15 13 13 13 15 15 14 14 14 15 16 14 15 15 14 13 12 12 12 11 11 11 11 11 10 10 10 9 9 9 9 9 8 8 8 8 8 8
13 14 15 15 14 14 14 14 14 14 14 11 13 9 8 11 10 12 12 14 14 16 16 15 14 14 14 14 15 15 15 14 14 15 15 16 14 15 15 14 13 12 13 13 12 11 11 12 12 11 10 10 10 10 9 9 9 9 9 9 9 9 9
12 13 14 16 15 16 16 18 18 15 11 11 12 11 14 9 10 11 12 12 13 14 14 14 12 13 14 15 15 15 15 15 15 15 16 16 15 16 16 15 14 12 14 13 13 13 11 11 11 11 11 11 11 11 11 11 10 10 10 10 9 10 9
11 12 13 14 15 16 16 14 15 15 14 12 10 12 11 12 12 9 10 11 12 12 13 13 14 14 14 14 14 14 15 15 15 16 16 16 15 16 16 15 14 13 13 13 14 14 13 12 11 11 12 12 12 12 12 11 11 11 11 11 11 10 10
11 12 12 14 14 13 13 15 15 14 16 14 11 10 10 11 11 14 8 11 11 11 11 12 13 14 14 14 14 13 14 15 15 14 15 15 15 14 14 15 15 15 14 13 14 14 14 14 13 11 12 13 12 13 12 12 12 11 11 11 11 11 10
11 13 14 14 15 15 15 13 13 14 14 15 15 12 10 10 12 11 12 9 8 11 10 10 12 13 14 13 12 12 14 15 15 15 14 13 13 13 14 14 14 14 13 12 13 14 15 15 14 13 12 12 12 12 12 12 11 12 11 11 11 11 12
12 12 13 14 14 14 15 14 13 13 13 14 15 16 15 13 12 12 12 11 13 8 11 10 11 12 13 12 13 13 13 13 13 13 13 13 13 13 13 13 13 13 12 12 12 12 14 14 14 14 13 13 12 12 12 12 12 11 11 12 12 12 12
12 12 13 14 14 14 14 14 14 14 14 13 14 15 15 13 12 12 11 12 12 11 9 9 11 11 12 12 13 13 13 12 11 11 12 13 13 13 13 13 13 13 13 13 13 12 11 12 12 13 14 13 13 12 12 12 11 11 14 13 11 12 12
11 12 12 12 13 14 13 14 14 14 15 14 14 14 13 12 11 9 9 9 10 10 10 8 10 10 11 13 12 12 11 11 11 11 12 12 13 12 13 13 12 12 12 12 12 12 11 11 13 13 13 14 13 13 12 11 11 14 15 16 15 12 11
10 10 11 12 13 13 14 14 14 14 14 15 15 14 13 12 12 11 10 8 9 9 10 9 9 10 11 12 12 11 12 11 11 12 13 12 12 12 12 12 12 12 12 12 13 12 12 13 13 13 13 12 13 14 13 12 13 14 16 17 17 15 13
9 10 10 11 12 12 13 13 13 13 13 12 13 13 13 12 12 12 11 11 9 10 10 10 9 10 10 11 13 12 12 12 12 13 13 13 12 12 11 12 12 13 13 14 13 12 12 13 14 14 14 13 14 14 14 14 14 16 17 17 18 18 16
9 9 9 10 10 12 12 11 11 12 13 12 12 12 12 11 11 11 11 9 9 9 10 10 9 9 10 10 11 12 12 12 13 13 13 12 12 11 12 12 13 14 13 13 12 12 13 15 15 14 14 14 15 14 14 15 14 18 19 19 19 19 16
8 9 10 9 11 11 11 12 12 12 13 12 12 12 12 11 11 11 10 9 8 8 9 10 10 10 10 10 11 11 11 13 12 13 12 12 12 12 13 13 13 14 13 13 13 14 14 14 15 14 15 15 15 14 15 15 15 17 20 20 20 19 16
9 10 10 10 10 10 10 11 12 13 12 11 11 11 11 12 12 12 11 9 8 6 6 8 9 9 10 10 11 10 12 12 13 12 12 12 12 13 14 14 14 14 13 13 13 13 13 13 14 15 16 16 15 14 15 14 15 16 17 18 18 18 11
9 9 10 10 10 10 9 10 11 11 11 11 11 12 12 12 12 12 11 9 8 7 6 5 7 9 9 9 11 12 12 11 13 13 13 13 13 14 14 14 15 14 12 13 14 14 14 14 14 13 14 15 15 15 14 14 13 16 17 17 17 13 11
8 9 10 10 10 10 10 10 10 10 10 10 11 11 10 12 12 12 11 10 9 8 6 6 6 6 8 8 10 12 12 12 11 13 14 13 15 15 15 14 13 13 12 14 14 15 15 14 13 13 14 15 16 15 15 15 14 17 18 19 19 17 12
8 9 10 10 10 11 11 11 10 10 10 10 11 11 11 11 12 12 12 11 11 10 9 8 8 8 7 7 9 10 11 11 12 12 12 14 15 14 15 14 13 12 12 13 13 14 13 13 13 14 14 15 16 15 17 15 14 17 19 20 21 18 12
9 10 10 11 10 10 11 11 10 10 11 11 10 10 11 11 11 11 12 12 11 11 10 10 10 8 7 7 7 8 9 10 10 11 12 11 13 11 13 13 12 13 13 13 12 12 13 13 14 16 14 14 15 14 16 16 15 13 20 20 21 22 14
10 10 11 11 11 11 10 10 10 10 11 10 9 9 9 10 10 10 11 11 11 11 12 11 11 10 9 7 8 8 8 9 10 11 12 11 6 8 11 13 12 11 12 13 12 13 13 14 14 14 15 14 14 15 16 14 15 12 19 20 21 22 20
12 11 10 11 11 11 11 10 10 11 11 10 10 10 10 10 10 11 10 10 11 13 12 13 13 10 10 9 9 9 8 8 9 10 9 8 6 5 6 7 7 12 14 12 12 13 14 13 12 13 13 13 14 14 14 15 15 14 17 21 22 22 25
12 12 12 11 11 11 11 11 11 11 12 10 10 9 10 11 12 11 11 11 12 11 12 12 13 13 11 10 8 7 8 7 8 10 8 8 7 8 9 7 8 10 9 10 14 16 16 15 14 13 13 13 13 13 13 13 11 15 12 19 22 23 23
12 13 13 12 11 12 12 11 12 12 11 10 10 9 9 10 11 11 12 12 10 10 10 11 12 12 12 11 9 8 7 7 7 7 8 10 9 7 7 8 8 8 8 8 10 12 14 15 15 13 14 14 13 13 13 11 12 12 15 16 23 22 24
12 13 13 13 13 12 12 12 13 13 14 12 11 9 9 8 10 12 13 11 10 10 10 10 12 12 12 11 11 9 8 7 7 7 7 9 10 9 8 7 8 8 7 6 11 12 14 13 16 15 13 14 14 14 14 13 13 13 14 20 20 23 23
12 12 13 13 13 12 13 13 13 14 14 14 12 11 9 9 8 12 12 11 10 9 9 10 10 11 12 12 11 10 9 7 7 8 8 7 7 9 10 10 10 8 8 8 7 9 12 14 16 15 13 13 14 14 14 13 12 14 12 13 18 19 21
12 13 14 14 13 14 13 13 12 13 14 14 13 11 11 10 9 9 10 11 11 10 8 8 9 10 11 12 12 11 9 8 5 6 7 6 4 6 9 10 10 9 7 7 9 11 12 11 13 15 13 14 13 13 13 13 13 13 13 10 11 11 12
11 12 14 15 16 15 15 15 14 14 14 13 12 11 11 10 10 9 9 11 11 10 8 8 8 9 10 13 12 11 9 8 8 8 7 7 6 5 6 8 10 10 9 8 8 9 7 9 13 12 8 8 9 10 11 13 11 13 13 12 11 12 12
12 13 14 15 15 15 15 15 15 15 15 14 13 12 12 12 11 10 10 10 10 10 10 8 9 9 10 10 10 10 10 9 8 6 7 8 8 5 5 6 8 10 11 11 8 8 8 10 11 9 8 5 4 5 11 13 13 10 11 13 11 12 10
13 13 14 14 13 15 16 16 17 17 16 14 13 13 12 12 11 10 10 9 9 10 10 11 9 9 9 8 9 10 10 10 9 7 6 8 9 10 8 6 8 9 10 12 14 17 17 12 11 10 7 5 8 10 11 10 8 18 30 15 7 9 12
14 13 14 14 15 16 16 17 17 18 18 15 13 13 13 13 12 11 10 9 8 9 11 10 10 9 8 8 8 8 10 11 11 9 7 7 8 9 11 11 7 9 12 13 15 19 21 21 18 14 12 10 11 10 18 15 12 18 21 21 11 12 12
14 14 15 14 14 15 17 17 18 18 18 15 13 13 12 13 12 11 11 9 9 9 9 10 10 9 9 8 8 8 9 10 12 11 9 7 6 8 11 11 12 12 5 8 13 15 17 19 19 17 12 13 16 13 9 12 17 22 23 20 18 14 13
Wind_Direction
0 328 216 209 216 209 207 205 198 196 198 198 197 197 197 196 194 189 187 183 185 184 183 183 186 187 191 195 198 199 201 200 199 201 204 208 211 209 206 207 205 210 209 205 204 199 191 196 187 195 196 201 210 202 207 201 201 201 197 194 211 215 210
7 358 357 294 217 213 210 210 202 200 198 199 197 197 199 196 194 193 189 185 186 184 183 184 186 188 191 195 196 197 199 202 202 202 204 205 206 209 210 207 213 204 213 214 207 194 195 192 199 198 200 198 207 206 206 208 210 209 206 195 208 207 207
15 3 346 345 333 287 224 206 205 203 200 199 199 198 198 196 194 194 189 188 187 187 185 186 187 188 189 191 194 197 199 201 202 203 204 205 204 207 204 209 211 212 212 210 214 205 197 201 194 200 205 205 206 199 209 211 210 212 213 207 209 210 210
12 4 355 345 327 312 305 233 209 206 205 204 202 200 197 195 195 193 193 190 187 187 188 188 189 192 191 190 194 195 198 201 205 207 210 212 208 208 209 207 213 218 212 214 211 214 212 194 193 196 200 207 208 203 206 212 211 210 214 214 221 216 218
17 8 3 358 345 325 290 256 227 209 208 209 207 204 200 196 195 193 196 196 194 191 190 190 191 191 191 191 192 195 197 199 202 209 212 213 212 209 211 212 207 214 216 212 212 207 211 196 198 194 193 204 205 203 207 205 215 209 214 213 224 222 220
18 13 9 2 0 346 302 256 243 219 214 215 211 205 206 201 197 199 197 197 200 197 195 194 194 189 191 192 194 194 195 198 200 203 208 210 209 209 210 211 213 211 211 214 211 206 201 207 211 202 202 199 210 208 207 206 209 211 210 216 222 227 229
22 21 12 8 11 10 0 277 231 230 214 214 215 207 207 205 204 203 201 202 200 197 197 199 199 194 194 193 196 193 193 194 196 200 201 206 207 210 211 211 215 214 215 207 214 211 207 207 211 210 208 215 208 212 206 207 211 210 212 213 218 226 236
29 23 19 15 17 22 24 22 21 282 237 215 213 213 203 209 208 205 207 206 202 202 201 200 198 197 193 196 195 197 196 197 195 197 198 201 203 208 209 212 210 213 212 212 209 212 213 210 209 209 211 214 214 213 210 202 208 213 210 214 215 223 221
28 30 26 22 22 26 30 31 29 30 24 7 277 213 209 209 212 211 209 210 204 205 205 205 200 195 193 195 196 197 197 197 196 196 199 201 202 207 210 210 211 208 210 214 211 207 215 213 215 211 209 214 214 208 211 208 209 213 217 215 216 221 231
27 28 29 26 27 29 28 29 29 35 32 14 11 357 230 210 218 219 215 209 203 208 210 209 205 197 193 196 198 198 197 197 199 199 198 202 204 208 211 211 208 206 210 212 215 209 208 216 216 211 207 209 208 206 209 208 212 215 213 215 218 221 223
30 29 29 27 26 27 28 30 31 27 26 31 24 12 9 344 235 222 220 212 212 208 207 208 208 206 198 200 200 198 199 202 202 203 203 205 205 208 209 211 210 205 209 211 214 216 210 208 213 212 207 210 208 208 209 211 212 213 219 218 219 222 226
33 30 29 26 23 25 28 28 29 28 26 25 31 31 11 2 352 251 223 226 219 217 205 204 203 207 207 204 205 202 201 202 205 207 207 208 210 210 209 210 211 208 206 210 211 213 215 209 208 208 208 212 212 211 210 210 211 212 217 221 221 222 227
37 37 33 27 25 22 20 23 20 21 22 25 26 25 27 14 359 359 319 235 229 230 215 205 206 203 206 208 206 203 202 203 205 208 209 207 212 213 212 213 212 212 209 206 210 210 214 213 211 210 212 213 215 216 212 211 211 210 212 219 224 225 226
39 38 33 31 28 21 18 14 12 14 16 21 21 22 26 22 14 358 358 337 246 226 231 211 208 207 204 204 212 207 203 205 206 208 207 209 209 213 215 214 214 213 213 209 208 213 214 217 214 211 214 216 217 218 216 213 213 211 211 214 219 221 225
34 34 32 29 25 27 21 14 8 6 8 12 14 18 20 21 14 6 0 2 348 283 234 227 212 213 209 203 207 210 208 206 207 208 204 206 205 210 214 215 213 213 213 211 214 214 216 217 219 216 217 219 219 220 218 219 218 216 212 213 216 222 226
31 30 29 26 22 21 20 18 14 3 1 6 10 10 15 14 12 8 7 359 344 343 311 248 232 221 223 214 208 210 208 205 207 206 206 203 204 205 208 212 213 213 213 213 215 217 217 221 221 223 221 220 219 219 220 222 223 214 208 212 218 219 227
31 26 25 23 22 19 14 19 15 7 3 1 4 7 7 1 1 2 9 3 353 338 323 291 250 229 233 231 219 212 208 201 201 204 205 205 205 204 206 209 211 213 213 215 215 217 215 219 221 223 225 223 222 220 221 223 223 207 197 205 214 223 226
29 25 21 20 19 17 16 11 15 12 4 357 357 0 1 356 350 353 1 358 357 347 337 309 294 273 231 232 232 219 210 207 202 202 204 205 206 206 206 207 208 211 213 215 215 213 216 216 218 223 225 226 226 225 225 226 219 196 196 202 206 212 225
24 21 22 19 14 16 17 10 8 8 6 359 355 351 355 351 346 344 346 350 349 347 343 343 314 299 286 244 238 233 218 211 208 205 206 206 207 207 206 207 209 212 215 217 217 216 215 218 218 219 221 225 226 228 228 230 206 191 195 200 202 205 214
18 19 18 17 10 14 11 7 5 4 5 1 355 351 350 348 346 340 336 342 346 348 347 344 350 330 299 283 250 238 232 222 213 212 211 209 207 206 209 211 214 216 217 221 220 221 221 221 221 220 218 219 221 224 228 230 205 190 194 197 198 200 201
11 10 11 12 8 9 8 1 1 0 1 360 355 354 350 348 350 339 342 346 351 356 354 351 353 351 347 329 288 253 241 236 225 219 216 212 208 207 210 212 217 219 219 221 220 219 220 224 224 223 222 222 222 223 226 227 214 191 194 196 197 196 196
3 2 0 6 359 3 2 1 359 357 356 351 351 355 355 348 345 347 344 339 351 357 12 359 355 355 353 338 342 305 253 241 237 227 219 215 212 210 210 212 215 217 218 224 227 225 224 223 227 226 225 225 226 228 230 234 211 195 196 196 196 188 196
357 351 353 353 354 353 359 356 353 355 348 352 353 353 350 346 344 347 340 344 351 349 359 11 11 356 348 351 336 338 329 274 247 239 229 220 217 216 214 213 214 217 218 222 226 228 226 227 226 227 230 229 226 228 233 237 213 190 193 193 188 177 206
342 344 347 346 343 341 353 351 346 344 345 346 356 353 348 343 344 344 338 341 345 345 346 1 10 5 352 347 343 330 322 323 296 251 236 233 227 221 220 218 217 219 215 219 223 227 230 228 228 229 229 229 228 224 228 234 217 185 191 189 178 185 201
332 337 333 337 335 340 345 343 337 332 335 344 354 348 345 344 344 345 341 337 338 341 345 349 357 359 349 344 338 324 321 314 315 311 266 240 234 231 227 221 221 222 217 220 223 230 232 231 234 232 230 230 229 222 227 235 223 185 190 187 181 189 204
325 322 322 321 325 339 333 327 324 329 334 340 348 337 343 343 344 344 341 336 330 334 344 344 343 343 336 337 328 321 317 316 317 307 307 287 269 261 244 235 233 226 221 223 227 229 228 230 233 235 235 234 232 230 224 231 238 195 188 184 186 190 199
309 311 311 315 322 334 316 319 323 328 326 332 327 331 343 344 342 343 340 335 329 336 338 335 335 335 341 325 320 319 315 321 312 308 305 307 319 308 316 303 271 245 234 233 234 233 232 232 234 234 236 237 237 239 234 233 231 203 180 187 186 191 200
305 306 307 307 315 309 310 310 315 315 317 318 318 327 331 332 340 333 336 331 332 331 332 329 327 332 333 327 323 322 325 326 321 311 304 311 352 312 245 233 272 293 298 286 259 243 238 237 235 237 241 238 237 239 238 233 224 235 178 187 187 192 199
303 303 305 306 300 303 309 310 311 308 308 312 321 332 324 322 322 325 329 329 333 331 328 327 324 325 324 324 309 314 319 323 324 325 325 315 305 288 286 273 253 247 238 252 282 277 262 245 237 237 240 243 243 239 239 239 232 220 202 186 191 194 199
298 299 298 298 300 303 308 304 301 300 304 309 313 314 320 314 314 315 319 321 331 328 326 323 326 319 319 318 316 312 314 319 323 327 319 318 310 293 276 276 269 248 221 222 232 249 259 262 248 236 238 239 242 241 241 236 238 215 207 187 193 195 198
303 301 301 302 302 304 301 298 299 300 298 299 300 305 305 305 302 305 307 316 322 324 322 326 324 323 317 317 317 313 312 318 324 322 320 317 317 312 298 264 258 261 263 233 238 243 243 241 253 246 239 238 239 241 240 236 232 236 203 190 190 198 199
293 293 296 300 301 304 304 300 296 293 293 295 296 295 292 289 291 295 303 309 314 314 322 324 323 319 315 313 315 313 307 318 326 317 312 315 318 315 308 302 276 255 252 254 253 255 257 255 255 253 245 245 241 240 239 236 236 234 226 186 194 199 201
301 301 301 299 298 301 299 300 297 293 293 292 295 294 292 292 290 291 295 300 305 314 321 318 313 314 313 313 313 307 301 311 316 318 301 299 308 307 310 308 307 295 272 250 253 251 248 246 258 260 251 249 248 244 241 235 234 229 230 194 187 196 195
296 297 296 296 297 296 294 291 290 290 290 289 290 290 288 285 282 283 287 291 301 309 311 309 312 314 314 312 310 304 308 309 314 313 310 314 311 304 303 303 306 307 307 300 276 262 246 253 251 257 270 283 288 287 273 256 236 235 225 220 194 193 196
296 295 294 293 293 291 289 290 289 288 288 286 287 285 283 282 280 282 283 284 290 301 303 305 306 305 304 307 305 305 306 304 302 311 316 314 307 301 291 293 295 300 302 298 306 304 297 277 265 266 264 257 247 269 268 279 282 264 260 222 217 198 196
294 292 291 290 290 290 287 284 284 284 283 282 283 281 278 276 275 272 273 279 285 290 297 304 306 303 302 307 308 306 311 312 307 309 312 314 315 313 303 256 234 261 282 297 296 285 272 253 260 270 291 262 237 226 246 255 270 328 320 284 163 155 172
294 293 292 292 289 286 285 285 283 282 280 278 278 276 276 272 269 269 271 273 275 281 287 293 300 300 295 300 302 311 310 304 298 301 306 309 307 312 311 311 285 233 243 252 267 269 270 272 261 254 243 244 257 229 210 229 267 283 277 271 236 189 184
291 290 290 288 284 284 282 279 278 276 276 275 272 271 270 267 263 260 261 263 268 271 276 285 290 293 295 294 297 300 298 297 297 299 298 297 306 313 313 311 308 310 283 262 267 259 260 266 276 278 264 220 224 239 245 212 214 235 243 239 236 217 200